Tracking 19490 objects as of 23-Jan-2019
HD Live streaming from Space Station
objects crossing your sky now

COSMOS 2126

Track COSMOS 2126 now!
10-day predictions
COSMOS 2126 is classified as:


NORAD ID: 21101
Int'l Code: 1991-009B
Perigee: 1,473.8 km
Apogee: 1,502.8 km
Inclination: 74.0 °
Period: 115.6 minutes
Semi major axis: 7859 km
RCS: 0.7089 m2 (medium)
Launch date: February 12, 1991
Source: Commonwealth of Independent States (former USSR) (CIS)
Launch site: PLESETSK MISSILE AND SPACE COMPLEX (PKMTR)
aabbcc
Your satellite tracking list
Your tracking list is empty




NASA's NSSDC Master Catalog

Two Line Element Set (TLE):
1 21101U 91009B   19022.56836891 -.00000010 +00000-0 +39062-4 0  9990
2 21101 074.0298 049.9333 0018413 138.5993 336.7775 12.46024319271069
Source of the keplerian elements: AFSPC